Showing default

CALSPHERE 2, 902

Orbit data source: Space-Track

CALSPHERE 2, 902 is a payload satellite owned by NRL (US) in LEO that was launched on Tue, 06 Oct 1964 UTC via a THOR ABLESTAR launch vehicle from the Air Force Western Test Range (AFWTR). Payload-class satellites include a variety of spacecraft equipped with specific instruments for various scientific and technological missions. These include communications satellites like Starlink; space stations such as the ISS; scientific satellites like the Hubble; Earth observation satellites from companies like Planet Labs, Umbra, and HawkEye 360; GPS; miniature CubeSats for education and research; and military/defense satellites.

Loading next visibility...
Identifier
902, 1964-063E
Orbit
LEO
Country
Flag of USUS
Related business
Manufacturer
NRL
Mission
Operational Defense Calibration
Bus & Motor
NRL 14", Unknown motor
Mass
10 kg wet, 10 kg dry
Launch date (UTC)
1964-10-06 (61 years ago)
Launch vehicle
THOR ABLESTAR
Launch site
Air Force Western Test Range (AFWTR)
Object type
Payload
Rocket body
Debris
Shape & HBR
Sphere, 0.2 m
Radar Cross Section
0.102 m², Small (<0.1 m²)

Expand to show TLE details & history
Last TLE update: 10 hours ago

TLE from 10 hours ago
0 CALSPHERE 2
1 00902U 64063E   25258.21857160  .00000062  00000-0  79916-4 0  9996
2 00902  90.2265  69.3146 0016984 309.7153 223.9514 13.52871749819081
Epoch: 2025-09-15T05:14Z
TLE epoch observation values (Epoch: 2025-09-15T05:14:44.586Z)
Latitude
6.39127°
Longitude
176.22769°
Altitude
1,073.177 km
Speed
7.311 km/s
True Right ascension
16h 37m 21s
True Declination
6° 21' 18"
Sunlit
Object was in daylight at epoch
Visualization orbit readout
Latitude
Unknown
Longitude
Unknown
Altitude
Unknown
Speed
Unknown
Apparent Right ascension
Unknown
Apparent Declination
Unknown
Sunlit
N/A
Visualization observer readout
Local Sidereal Time
07:36:47
Azimuth
Unknown
Elevation
Unknown
Doppler factor
Unknown
Orbital elements
Apogee altitude
1,071.388 km
Perigee altitude
1,046.126 km
Semi-major axis
7,436.894 km
Eccentricity
0.0017
Inclination
90.2265°
RAAN
69.3146°
Arg. of periapsis
309.7153°
True anomaly
223.81653°
Mean anomaly
223.9514°
Eccentric anomaly
223.88394°
Mean motion
3.3842 °/min
Orbital period
106.38 mins
BSTAR
0.000079916
Loading maneuver chart data...
Computing Atmospheric mass density...
Loading historical data...
Loading historical data...
Loading historical data...
Loading historical data...
Loading historical data...
Loading historical data...
Loading historical data...

Documentation

Showing up to 5 results
|